Content
SEND FEEDBACK

Daily
Averages
Monthly
Summary
United States of America

BEAVER ISLAND, MICHIGAN


Home > North America > United States > Michigan
Elevation: 191 meters     Latitude: 45 43N     Longitude: 085 31W

WEATHER
 
SELECT A DAY
Number of Records: 332,612;   Date Range: 9/12/01 - 12/24/14
 
SHARE

PRINT THIS DATA

[ ← Previous Day ]
WEATHER ALMANAC - 11 JULY, 2014
[ Next Day → ]
[ °F ]   °C
Weather ElementAverageHighLow
Temperature18.2 °C23.3 °C (6:55 pm)9.5 °C (7:15 am)
Dewpoint11.3 °C13 °C (11:14 pm)8.8 °C (4:16 am)
Humidity66.2 %100 % (12:15 am)47 % (11:55 am)
Barometer1006.4 hPa1022 hPa (8:15 am) (7:00 pm)
Wind Speed13.8 km/h24.1 km/h (1:34 pm)
Wind Gust38.9 km/h (3:35 am)
Weather ElementAverage
Visibility16.1 km
Wind DirectionSSE (172.4 °)

Weather ElementTotal
Precipitation---
Heating Degree Days1.9 (Base 18.3)
Growing Degree Days6.4 (Base 10)
Averaged from 71 records on 11 July, 2014
WEATHER CONDITIONS BREAKOUT
WIND DIRECTION BREAKOUT
WEATHER BY HOUR - 11 JULY, 2014
[ °F ]   °C
Local TimeTemperatureDewpointHumidityBarometerVisibilityWind DirectionWind SpeedGust SpeedPrecipitationEventsConditions
12:15 AM9.7 °C9.4 °C98 %1022 hPa16.1 kmCalmClear
12:35 AM9.7 °C9.5 °C99 %1021.7 hPa16.1 kmCalmClear
12:55 AM9.5 °C9.5 °C100 %1021.7 hPa16.1 kmCalmClear
1:15 AM9.8 °C9.8 °C100 %1021.7 hPa16.1 kmCalmClear
1:35 AM9.6 °C9.6 °C100 %1021.7 hPa16.1 kmSE (130°)5.6 km/hClear
1:55 AM10.5 °C10 °C97 %1022 hPa16.1 kmCalmClear
2:15 AM10.6 °C10 °C96 %1022 hPa16.1 kmCalmClear
2:35 AM11.2 °C10 °C92 %1022 hPa16.1 kmSE (140°)5.6 km/hClear
2:55 AM10.4 °C9.6 °C95 %1022 hPa16.1 kmSSE (160°)5.6 km/hClear
3:15 AM10.2 °C9.3 °C94 %1022 hPa16.1 kmCalmClear
3:55 AM13.3 °C10.8 °C85 %1021.7 hPa16.1 kmSouth (170°)5.6 km/hScattered Clouds
4:15 AM13.8 °C11.4 °C85 %1021.7 hPa16.1 kmSSE (160°)7.4 km/hMostly Cloudy
4:35 AM14 °C11.7 °C86 %1021.7 hPa16.1 kmCalmMostly Cloudy
4:55 AM14.5 °C12.3 °C87 %1021.7 hPa16.1 kmSouth (190°)5.6 km/hScattered Clouds
5:15 AM14.2 °C12 °C87 %1021.7 hPa16.1 kmCalmMostly Cloudy
5:35 AM14.1 °C11.8 °C86 %1021.3 hPa16.1 kmSSE (150°)5.6 km/hMostly Cloudy
5:55 AM14.5 °C11.7 °C83 %1021.3 hPa16.1 kmSSE (160°)5.6 km/hScattered Clouds
6:15 AM14.1 °C11.6 °C85 %0 hPa16.1 kmCalmScattered Clouds
6:35 AM14.7 °C12.1 °C84 %1021.3 hPa16.1 kmSSE (150°)5.6 km/hMostly Cloudy
6:55 AM15.7 °C11.7 °C77 %1021.3 hPa16.1 kmSouth (190°)7.4 km/hOvercast
7:15 AM16.3 °C11.8 °C75 %1021.7 hPa16.1 kmSouth (190°)9.3 km/hMostly Cloudy
7:35 AM16.1 °C12 °C77 %1021.7 hPa16.1 kmSouth (180°)7.4 km/hScattered Clouds
7:56 AM17.6 °C12 °C70 %1021.7 hPa16.1 kmSSW (200°)13 km/hClear
8:15 AM18 °C11.5 °C66 %1021.7 hPa16.1 kmSSW (200°)13 km/hScattered Clouds
8:35 AM17.9 °C11.7 °C67 %1022 hPa16.1 kmSouth (190°)13 km/hScattered Clouds
8:56 AM19 °C11.2 °C61 %1022 hPa16.1 kmSSW (210°)14.8 km/hScattered Clouds
9:15 AM19.1 °C10.9 °C59 %1022 hPa16.1 kmSSW (200°)16.7 km/h25.9 km/hMostly Cloudy
9:35 AM19.9 °C10.6 °C55 %1022 hPa16.1 kmSSW (210°)18.5 km/h27.8 km/hMostly Cloudy
9:55 AM20.5 °C10 °C51 %1022 hPa16.1 kmSW (220°)16.7 km/h29.6 km/hMostly Cloudy
10:15 AM20.3 °C10.2 °C52 %1021.7 hPa16.1 kmSSW (210°)20.4 km/h29.6 km/hMostly Cloudy
10:35 AM20.6 °C10.4 °C52 %1021.7 hPa16.1 kmSW (220°)16.7 km/h27.8 km/hMostly Cloudy
10:55 AM20.4 °C10.1 °C52 %1021.7 hPa16.1 kmSSW (210°)14.8 km/h29.6 km/hOvercast
11:15 AM20.2 °C10.4 °C53 %1021.3 hPa16.1 kmSSW (210°)22.2 km/h27.8 km/hMostly Cloudy
11:35 AM20.2 °C10 °C52 %1021.3 hPa16.1 kmSSW (210°)18.5 km/h27.8 km/hOvercast
11:56 AM21.9 °C10.4 °C48 %1021 hPa16.1 kmSSW (210°)18.5 km/h31.5 km/hScattered Clouds
12:15 PM21.5 °C10.4 °C49 %1021 hPa16.1 kmSSW (200°)13 km/h35.2 km/hMostly Cloudy
12:35 PM22 °C10.7 °C49 %1021 hPa16.1 kmSSW (200°)18.5 km/h33.3 km/hOvercast
12:56 PM20.8 °C10.9 °C53 %1021 hPa16.1 kmSSW (210°)18.5 km/h25.9 km/hMostly Cloudy
1:15 PM21.5 °C11.5 °C53 %1021 hPa16.1 kmSSW (200°)20.4 km/h31.5 km/hMostly Cloudy
1:35 PM22.6 °C12.1 °C51 %1021 hPa16.1 kmSSW (200°)18.5 km/h25.9 km/hScattered Clouds
1:56 PM23.3 °C12 °C49 %1021 hPa16.1 kmSSW (210°)20.4 km/h38.9 km/hScattered Clouds
2:15 PM23 °C12 °C50 %1021 hPa16.1 kmSSW (210°)24.1 km/h33.3 km/hMostly Cloudy
2:35 PM22.2 °C12.5 °C54 %1021 hPa16.1 kmSW (220°)20.4 km/h35.2 km/hOvercast
2:56 PM22.2 °C12.6 °C54 %1021 hPa16.1 kmSSW (210°)20.4 km/h37 km/hMostly Cloudy
3:15 PM21.4 °C12.1 °C55 %1020.7 hPa16.1 kmSW (220°)22.2 km/h33.3 km/hMostly Cloudy
3:35 PM21 °C12.1 °C57 %1020.7 hPa16.1 kmSW (220°)22.2 km/h33.3 km/hMostly Cloudy
3:56 PM20.9 °C12.6 °C59 %1020.3 hPa16.1 kmSW (220°)16.7 km/h29.6 km/hScattered Clouds
4:15 PM20.5 °C12.6 °C60 %1020.3 hPa16.1 kmSSW (210°)22.2 km/h38.9 km/hScattered Clouds
4:35 PM20.6 °C12.4 °C59 %1020 hPa16.1 kmSSW (210°)24.1 km/h33.3 km/hClear
4:56 PM20.3 °C12.4 °C60 %1020 hPa16.1 kmSSW (210°)14.8 km/h33.3 km/hScattered Clouds
5:15 PM20.3 °C12.7 °C62 %1019.6 hPa16.1 kmSW (220°)18.5 km/hScattered Clouds
5:35 PM20.8 °C12.8 °C60 %1019.3 hPa16.1 kmSSW (210°)18.5 km/h29.6 km/hScattered Clouds
5:56 PM21.5 °C13 °C58 %1019.3 hPa16.1 kmSSW (210°)18.5 km/h37 km/hMostly Cloudy
6:15 PM21.3 °C13 °C59 %1019.3 hPa16.1 kmSSW (200°)18.5 km/h25.9 km/hOvercast
6:35 PM21.5 °C13 °C58 %1019 hPa16.1 kmSSW (210°)16.7 km/h27.8 km/hMostly Cloudy
6:56 PM21.5 °C12.9 °C58 %1019 hPa16.1 kmSSW (210°)16.7 km/h25.9 km/hMostly Cloudy
7:15 PM21.2 °C12.7 °C58 %1019 hPa16.1 kmSSW (210°)18.5 km/h27.8 km/hOvercast
7:35 PM21.3 °C12.7 °C58 %1019 hPa16.1 kmSSW (210°)16.7 km/h27.8 km/hOvercast
7:56 PM21.1 °C12.6 °C58 %1019 hPa16.1 kmSSW (210°)16.7 km/h29.6 km/hOvercast
8:15 PM20.9 °C12.5 °C59 %1019 hPa16.1 kmSSW (210°)20.4 km/h29.6 km/hOvercast
8:35 PM20.5 °C12.4 °C60 %1019.3 hPa16.1 kmSSW (210°)22.2 km/h27.8 km/hOvercast
8:56 PM20 °C12.1 °C60 %1019.3 hPa16.1 kmSW (220°)18.5 km/h29.6 km/hOvercast
9:15 PM19.7 °C11.7 °C60 %1019.3 hPa16.1 kmSSW (210°)20.4 km/h29.6 km/hOvercast
9:35 PM20 °C10.7 °C55 %1019 hPa16.1 kmSSW (210°)20.4 km/h31.5 km/hOvercast
9:56 PM20 °C9.7 °C51 %1019.3 hPa16.1 kmSW (220°)18.5 km/h27.8 km/hMostly Cloudy
10:15 PM20.3 °C9.3 °C49 %1019.3 hPa16.1 kmSW (220°)14.8 km/hOvercast
10:35 PM20.4 °C8.8 °C47 %1019 hPa16.1 kmSSW (210°)22.2 km/h35.2 km/hOvercast
10:56 PM20.5 °C10 °C51 %1019 hPa16.1 kmSSW (210°)22.2 km/h31.5 km/hOvercast
11:15 PM20.3 °C10 °C52 %1019 hPa16.1 kmSSW (210°)22.2 km/h33.3 km/hOvercast
11:35 PM20.5 °C10.5 °C53 %1019 hPa16.1 kmSSW (200°)18.5 km/h29.6 km/hOvercast
11:56 PM20.7 °C11 °C54 %1018.6 hPa16.1 kmSSW (200°)16.7 km/h29.6 km/hOvercast
Hourly data recorded from KSJX, located 0 kilometers away from Beaver Island, Michigan







STORIES FROM OUR PARTNERS